STARLINK-30141, 57620

Orbit data source: Space-Track

STARLINK-30141, 57620 is a payload satellite owned by SpaceX/Seattle (US) in LEO that was launched on Fri, 11 Aug 2023 UTC via an FALCON 9 launch vehicle from the Air Force Eastern Test Range (AFETR). Payload-class satellites include a variety of spacecraft equipped with specific instruments for various scientific and technological missions. These include communications satellites like Starlink; space stations such as the ISS; scientific satellites like the Hubble; Earth observation satellites from companies like Planet Labs, Umbra, and HawkEye 360; GPS; miniature CubeSats for education and research; and military/defense satellites.

Loading next visibility...
Identifier
57620, 2023-119U
Orbit
LEO
Country
Flag of USUS
Related business
Manufacturer
SpaceX/Seattle
Mission
Operational Commercial Communications
Bus & Motor
STARLINK V2M, Unknown motor
Mass
730 kg wet, ~700 kg dry
Launch date (UTC)
2023-08-11 (3 years ago)
Launch vehicle
FALCON 9
Launch site
Air Force Eastern Test Range (AFETR)
Object type
Payload
Rocket body
Debris
Shape & HBR
Box + 2 Pan, 17.7 m
Radar Cross Section
33.884 m², Large (>1 m²)

Expand to show TLE details & history
Last TLE update: 3 days ago

TLE from 3 days ago
0 STARLINK-30141
1 57620U 23119U   26170.60095742  .00000586  00000-0  30814-4 0  9994
2 57620  43.0023 225.9353 0001063 274.4564  85.6167 15.27577341158677
Epoch: 2026-06-19T14:25Z
TLE epoch observation values (Epoch: 2026-06-19T14:25:22.721Z)
Latitude
0.00005°
Longitude
101.76309°
Altitude
482.777 km
Speed
7.626 km/s
True Right ascension
15h 03m 44s
True Declination
0° 00' 00"
Sunlit
Object was in full shadow at epoch
Visualization orbit readout
Latitude
Unknown
Longitude
Unknown
Altitude
Unknown
Speed
Unknown
Apparent Right ascension
Unknown
Apparent Declination
Unknown
Sunlit
N/A
Visualization observer readout
Local Sidereal Time
21:42:59
Azimuth
Unknown
Elevation
Unknown
Doppler factor
Unknown
Orbital elements
Apogee altitude
485.731 km
Perigee altitude
484.272 km
Semi-major axis
6,863.139 km
Eccentricity
0.00011
Inclination
43.0023°
RAAN
225.9353°
Arg. of periapsis
274.4564°
True anomaly
85.62885°
Mean anomaly
85.6167°
Eccentric anomaly
85.62277°
Mean motion
3.81732 °/min
Orbital period
94.31 mins
BSTAR
0.000030814
Loading maneuver chart data...
Computing Atmospheric mass density...
Loading historical data...
Loading historical data...
Loading historical data...
Loading historical data...
Loading historical data...
Loading historical data...
Loading historical data...

Documentation

Showing up to 5 results
|